| time (UTC) | temp F | wind direction | speed knots | gust knots | rain 1hr in | rain 24hr in | rain mn in | humidity % | barometer mb |
| 20260505092853 | 67 | 85 | 0.0 | 0.0 | 0.00 | 0.02 | 0.02 | 82 | 1009.2 |
| 20260505092838 | 66 | 85 | 0.0 | 0.0 | 0.00 | 0.02 | 0.02 | 80 | 1009.3 |
| 20260505091855 | 67 | 85 | 0.0 | 0.0 | 0.00 | 0.02 | 0.02 | 82 | 1009.3 |
| 20260505091355 | 66 | 85 | 0.0 | 0.0 | 0.00 | 0.02 | 0.02 | 81 | 1009.4 |
| 20260505090851 | 65 | 85 | 0.0 | 0.0 | 0.00 | 0.02 | 0.02 | 84 | 1009.4 |
| 20260505090443 | 65 | 85 | 0.0 | 0.0 | 0.00 | 0.02 | 0.02 | 85 | 1009.5 |
| 20260505090404 | 65 | 85 | 0.0 | 0.0 | 0.00 | 0.02 | 0.02 | 83 | 1009.4 |
| 20260505085349 | 64 | 85 | 0.0 | 0.0 | 0.00 | 0.02 | 0.02 | 85 | 1009.6 |
| 20260505085337 | 64 | 85 | 0.0 | 0.0 | 0.00 | 0.02 | 0.02 | 87 | 1009.5 |
| 20260505084353 | 63 | 85 | 0.0 | 0.0 | 0.00 | 0.02 | 0.02 | 87 | 1009.5 |
| 20260505083848 | 63 | 85 | 0.0 | 0.0 | 0.00 | 0.02 | 0.02 | 87 | 1009.5 |
| 20260505083348 | 63 | 85 | 0.0 | 0.0 | 0.00 | 0.02 | 0.02 | 87 | 1009.5 |
| 20260505082847 | 63 | 85 | 0.0 | 0.0 | 0.00 | 0.02 | 0.02 | 87 | 1009.6 |
| 20260505082347 | 63 | 85 | 0.0 | 0.0 | 0.00 | 0.02 | 0.02 | 88 | 1009.7 |
| 20260505081847 | 63 | 85 | 0.0 | 0.0 | 0.00 | 0.02 | 0.02 | 88 | 1009.7 |
| 20260505081342 | 62 | 85 | 0.0 | 0.0 | 0.00 | 0.02 | 0.02 | 88 | 1009.7 |
| 20260505080842 | 62 | 17 | 0.0 | 0.0 | 0.00 | 0.02 | 0.02 | 89 | 1009.8 |
| 20260505080343 | 62 | 49 | 0.0 | 0.0 | 0.00 | 0.02 | 0.02 | 89 | 1009.7 |
| 20260505075842 | 62 | 82 | 0.0 | 0.0 | 0.00 | 0.02 | 0.02 | 89 | 1009.8 |
| 20260505075340 | 62 | 82 | 0.0 | 0.0 | 0.00 | 0.02 | 0.02 | 90 | 1009.9 |
| 20260505074841 | 62 | 69 | 0.0 | 0.0 | 0.00 | 0.02 | 0.02 | 90 | 1009.9 |
| 20260505074344 | 62 | 69 | 0.0 | 0.0 | 0.00 | 0.02 | 0.02 | 92 | 1010.0 |
| 20260505073844 | 61 | 69 | 0.0 | 0.0 | 0.00 | 0.02 | 0.02 | 92 | 1010.0 |
| 20260505073343 | 61 | 69 | 0.0 | 0.0 | 0.00 | 0.02 | 0.02 | 93 | 1010.0 |
| 20260505072846 | 60 | 69 | 0.0 | 0.0 | 0.00 | 0.02 | 0.02 | 94 | 1010.0 |
| 20260505072347 | 60 | 52 | 0.0 | 0.0 | 0.00 | 0.02 | 0.02 | 94 | 1010.1 |
| 20260505071842 | 60 | 52 | 0.0 | 0.0 | 0.00 | 0.02 | 0.02 | 94 | 1010.1 |
| 20260505071341 | 60 | 52 | 0.0 | 0.0 | 0.01 | 0.02 | 0.02 | 95 | 1010.2 |
| 20260505071042 | 59 | 52 | 0.0 | 0.0 | 0.02 | 0.02 | 0.02 | 95 | 1010.2 |
| 20260505070522 | 59 | 52 | 0.0 | 0.0 | 0.02 | 0.02 | 0.02 | 95 | 1010.3 |
| 20260505064839 | 58 | 52 | 0.0 | 0.0 | 0.02 | 0.00 | 0.02 | 95 | 1010.3 |
| 20260505064334 | 57 | 52 | 0.0 | 0.0 | 0.02 | 0.00 | 0.02 | 95 | 1010.3 |
| 20260505063838 | 57 | 52 | 0.0 | 0.0 | 0.02 | 0.00 | 0.02 | 95 | 1010.2 |
| 20260505063818 | 57 | 52 | 0.0 | 0.0 | 0.02 | 0.00 | 0.02 | 95 | 1010.2 |
| 20260505062835 | 57 | 52 | 0.0 | 0.0 | 0.02 | 0.00 | 0.02 | 94 | 1010.1 |
| 20260505062335 | 57 | 52 | 0.0 | 0.0 | 0.02 | 0.00 | 0.02 | 94 | 1010.0 |
| 20260505061832 | 57 | 52 | 0.0 | 0.0 | 0.02 | 0.00 | 0.02 | 94 | 1010.1 |
| 20260505061333 | 57 | 52 | 0.0 | 0.0 | 0.02 | 0.00 | 0.02 | 93 | 1010.1 |
| 20260505060833 | 57 | 52 | 0.0 | 0.0 | 0.01 | 0.00 | 0.01 | 93 | 1010.2 |
| 20260505060330 | 57 | 52 | 0.0 | 0.0 | 0.00 | 0.00 | 0.00 | 93 | 1010.3 |
| 20260505055830 | 57 | 52 | 0.0 | 0.0 | 0.00 | 0.00 | 0.00 | 93 | 1010.4 |
| 20260505055759 | 57 | 52 | 0.0 | 0.0 | 0.00 | 0.00 | 0.00 | 92 | 1010.4 |
| 20260505054831 | 57 | 52 | 0.0 | 0.0 | 0.00 | 0.00 | 0.00 | 93 | 1010.3 |
| 20260505054331 | 57 | 52 | 0.0 | 0.0 | 0.00 | 0.00 | 0.00 | 93 | 1010.4 |
| 20260505053831 | 56 | 52 | 0.0 | 0.0 | 0.00 | 0.00 | 0.00 | 93 | 1010.3 |
| 20260505053330 | 56 | 52 | 0.0 | 0.0 | 0.00 | 0.00 | 0.00 | 93 | 1010.2 |
| 20260505052828 | 56 | 52 | 0.0 | 0.0 | 0.00 | 0.00 | 0.00 | 93 | 1010.2 |
| 20260505052330 | 56 | 52 | 0.0 | 0.0 | 0.00 | 0.00 | 0.00 | 93 | 1010.1 |
| 20260505051829 | 56 | 52 | 0.0 | 0.0 | 0.00 | 0.00 | 0.00 | 94 | 1009.9 |
| 20260505051327 | 56 | 52 | 0.0 | 0.0 | 0.00 | 0.00 | 0.00 | 93 | 1010.0 |
| 20260505050842 | 56 | 52 | 0.0 | 0.0 | 0.00 | 0.00 | 0.00 | 94 | 1009.8 |
| 20260505050827 | 56 | 52 | 0.0 | 0.0 | 0.00 | 0.00 | 0.00 | 94 | 1009.9 |
| 20260505041320 | 53 | 51 | 0.0 | 0.0 | 0.00 | 0.00 | 0.00 | 94 | 1009.7 |
| 20260505040823 | 53 | 51 | 0.0 | 0.0 | 0.00 | 0.00 | 0.00 | 94 | 1009.7 |
| 20260505040320 | 53 | 51 | 0.0 | 0.0 | 0.00 | 0.00 | 0.00 | 94 | 1009.8 |
| 20260505035820 | 53 | 51 | 0.0 | 0.0 | 0.00 | 0.00 | 0.00 | 94 | 1009.8 |
| 20260505035318 | 53 | 51 | 0.0 | 0.0 | 0.00 | 0.00 | 0.00 | 94 | 1009.7 |
| 20260505034819 | 53 | 51 | 0.0 | 0.0 | 0.00 | 0.00 | 0.00 | 94 | 1009.9 |
| 20260505034322 | 53 | 51 | 0.0 | 0.0 | 0.00 | 0.00 | 0.00 | 94 | 1009.9 |
| 20260505034248 | 53 | 51 | 0.0 | 0.0 | 0.00 | 0.00 | 0.00 | 94 | 1009.9 |
| 20260505033319 | 52 | 51 | 0.0 | 0.0 | 0.00 | 0.00 | 0.00 | 94 | 1010.0 |
| 20260505032820 | 52 | 51 | 0.0 | 0.0 | 0.00 | 0.00 | 0.00 | 94 | 1010.0 |
| 20260505032321 | 52 | 51 | 0.0 | 0.0 | 0.00 | 0.00 | 0.00 | 94 | 1010.1 |
| 20260505031817 | 53 | 51 | 0.0 | 0.0 | 0.00 | 0.00 | 0.00 | 93 | 1010.1 |
| 20260505031528 | 53 | 51 | 0.0 | 0.0 | 0.00 | 0.00 | 0.00 | 93 | 1010.2 |
| 20260505030321 | 53 | 51 | 0.0 | 0.0 | 0.00 | 0.00 | 0.00 | 93 | 1010.2 |
| 20260505025814 | 53 | 51 | 0.0 | 0.0 | 0.00 | 0.00 | 0.00 | 93 | 1010.2 |
| 20260505025312 | 53 | 51 | 0.0 | 0.0 | 0.00 | 0.00 | 0.00 | 93 | 1010.3 |
| 20260505025007 | 54 | 51 | 0.0 | 0.0 | 0.00 | 0.00 | 0.00 | 93 | 1010.4 |
| 20260505023811 | 54 | 51 | 0.0 | 0.0 | 0.00 | 0.00 | 0.00 | 92 | 1010.5 |
| 20260505023312 | 54 | 51 | 0.0 | 0.0 | 0.00 | 0.00 | 0.00 | 92 | 1010.5 |
| 20260505022810 | 55 | 51 | 0.0 | 0.0 | 0.00 | 0.00 | 0.00 | 92 | 1010.5 |
| 20260505022311 | 55 | 51 | 0.0 | 0.0 | 0.00 | 0.00 | 0.00 | 92 | 1010.6 |
| 20260505021809 | 55 | 51 | 0.0 | 0.0 | 0.00 | 0.00 | 0.00 | 92 | 1010.6 |
| 20260505021310 | 56 | 51 | 0.0 | 0.0 | 0.00 | 0.00 | 0.00 | 92 | 1010.8 |
| 20260505020808 | 56 | 51 | 0.0 | 0.0 | 0.00 | 0.00 | 0.00 | 92 | 1010.8 |
| 20260505020305 | 56 | 51 | 0.0 | 0.0 | 0.00 | 0.00 | 0.00 | 92 | 1010.7 |
| 20260505015808 | 56 | 51 | 0.0 | 0.0 | 0.00 | 0.00 | 0.00 | 91 | 1010.9 |
| 20260505015308 | 56 | 51 | 0.0 | 0.0 | 0.00 | 0.00 | 0.00 | 92 | 1010.8 |
| 20260505014808 | 56 | 51 | 0.0 | 0.0 | 0.00 | 0.00 | 0.00 | 92 | 1010.9 |
| 20260505014307 | 56 | 51 | 0.0 | 0.0 | 0.00 | 0.00 | 0.00 | 92 | 1010.8 |
| 20260505013806 | 56 | 51 | 0.0 | 0.0 | 0.00 | 0.00 | 0.00 | 91 | 1010.9 |
| 20260505013303 | 56 | 51 | 0.0 | 0.0 | 0.00 | 0.00 | 0.00 | 92 | 1011.0 |
| 20260505012837 | 56 | 51 | 0.0 | 0.0 | 0.00 | 0.00 | 0.00 | 92 | 1011.0 |
| 20260505012814 | 56 | 51 | 0.0 | 0.0 | 0.00 | 0.00 | 0.00 | 92 | 1011.0 |
| 20260505011805 | 56 | 51 | 0.0 | 0.0 | 0.00 | 0.00 | 0.00 | 92 | 1011.0 |
| 20260505011303 | 56 | 51 | 0.0 | 0.0 | 0.00 | 0.00 | 0.00 | 91 | 1011.1 |
| 20260505011240 | 56 | 51 | 0.0 | 0.0 | 0.00 | 0.00 | 0.00 | 91 | 1011.2 |
| 20260505010304 | 56 | 51 | 0.0 | 0.0 | 0.00 | 0.00 | 0.00 | 91 | 1011.4 |
| 20260505005802 | 56 | 51 | 0.0 | 0.0 | 0.00 | 0.00 | 0.00 | 91 | 1011.5 |
| 20260505005303 | 56 | 51 | 0.0 | 0.0 | 0.00 | 0.00 | 0.00 | 91 | 1011.5 |
| 20260505004802 | 56 | 51 | 0.0 | 0.0 | 0.00 | 0.00 | 0.00 | 91 | 1011.4 |
| 20260505004302 | 56 | 51 | 0.0 | 0.0 | 0.00 | 0.00 | 0.00 | 91 | 1011.4 |
| 20260505003803 | 56 | 51 | 0.0 | 0.0 | 0.00 | 0.00 | 0.00 | 91 | 1011.3 |
| 20260505003307 | 56 | 51 | 0.0 | 0.0 | 0.00 | 0.00 | 0.00 | 91 | 1011.3 |
| 20260505002801 | 56 | 51 | 0.0 | 0.0 | 0.00 | 0.00 | 0.00 | 91 | 1011.5 |
| 20260505002303 | 56 | 51 | 0.0 | 0.0 | 0.00 | 0.00 | 0.00 | 91 | 1011.5 |
| 20260505001802 | 56 | 51 | 0.0 | 0.0 | 0.00 | 0.00 | 0.00 | 90 | 1011.6 |
| 20260505001728 | 56 | 51 | 0.0 | 0.0 | 0.00 | 0.00 | 0.00 | 90 | 1011.7 |
| 20260505000839 | 57 | 51 | 0.0 | 0.0 | 0.00 | 0.00 | 0.00 | 90 | 1011.8 |
| 20260505000811 | 56 | 51 | 0.0 | 0.0 | 0.00 | 0.00 | 0.00 | 90 | 1011.8 |
| 20260504235802 | 57 | 51 | 0.0 | 0.0 | 0.00 | 0.00 | 0.00 | 90 | 1011.8 |
| 20260504235304 | 57 | 51 | 0.0 | 0.0 | 0.00 | 0.00 | 0.00 | 90 | 1011.8 |
| 20260504234805 | 57 | 51 | 0.0 | 0.0 | 0.00 | 0.00 | 0.00 | 90 | 1011.7 |
| 20260504234304 | 57 | 51 | 0.0 | 0.0 | 0.00 | 0.00 | 0.00 | 90 | 1011.7 |
| 20260504233801 | 57 | 51 | 0.0 | 0.0 | 0.00 | 0.00 | 0.00 | 90 | 1011.7 |
| 20260504233301 | 57 | 51 | 0.0 | 0.0 | 0.00 | 0.00 | 0.00 | 89 | 1011.8 |
| 20260504232801 | 57 | 51 | 0.0 | 0.0 | 0.00 | 0.00 | 0.00 | 89 | 1011.7 |
| 20260504232303 | 57 | 51 | 0.0 | 0.0 | 0.00 | 0.00 | 0.00 | 89 | 1011.9 |
| 20260504232243 | 57 | 51 | 0.0 | 0.0 | 0.00 | 0.00 | 0.00 | 89 | 1011.8 |
| 20260504231301 | 57 | 51 | 0.0 | 0.0 | 0.00 | 0.00 | 0.00 | 89 | 1011.8 |
| 20260504230804 | 57 | 51 | 0.0 | 0.0 | 0.00 | 0.00 | 0.00 | 89 | 1011.9 |
| 20260504230303 | 57 | 51 | 0.0 | 0.0 | 0.00 | 0.00 | 0.00 | 89 | 1011.9 |
| 20260504225805 | 57 | 51 | 0.0 | 0.0 | 0.00 | 0.00 | 0.00 | 89 | 1011.8 |
| 20260504225309 | 57 | 51 | 0.0 | 0.0 | 0.00 | 0.00 | 0.00 | 89 | 1011.7 |
| 20260504224804 | 57 | 51 | 0.0 | 0.0 | 0.00 | 0.00 | 0.00 | 89 | 1011.8 |
| 20260504224742 | 57 | 51 | 0.0 | 0.0 | 0.00 | 0.00 | 0.00 | 88 | 1011.8 |
| 20260504223804 | 57 | 51 | 0.0 | 0.0 | 0.00 | 0.00 | 0.00 | 88 | 1011.8 |
| 20260504223307 | 57 | 51 | 0.0 | 0.0 | 0.00 | 0.00 | 0.00 | 88 | 1011.6 |
| 20260504223254 | 57 | 51 | 0.0 | 0.0 | 0.00 | 0.00 | 0.00 | 89 | 1011.7 |
| 20260504222304 | 57 | 51 | 0.0 | 0.0 | 0.00 | 0.00 | 0.00 | 89 | 1011.6 |
| 20260504221805 | 57 | 51 | 0.0 | 0.0 | 0.00 | 0.00 | 0.00 | 89 | 1011.6 |
| 20260504221306 | 57 | 51 | 0.0 | 0.0 | 0.00 | 0.00 | 0.00 | 89 | 1011.7 |
| 20260504220806 | 57 | 51 | 0.0 | 0.0 | 0.00 | 0.00 | 0.00 | 89 | 1011.9 |
| 20260504220749 | 57 | 51 | 0.0 | 0.0 | 0.00 | 0.00 | 0.00 | 89 | 1011.9 |
| 20260504220742 | 57 | 51 | 0.0 | 0.0 | 0.00 | 0.00 | 0.00 | 88 | 1012.1 |
| 20260504215301 | 57 | 51 | 0.0 | 0.0 | 0.00 | 0.00 | 0.00 | 88 | 1012.1 |
| 20260504214804 | 57 | 51 | 0.0 | 0.0 | 0.00 | 0.00 | 0.00 | 88 | 1012.2 |
| 20260504214730 | 57 | 51 | 0.0 | 0.0 | 0.00 | 0.00 | 0.00 | 88 | 1012.2 |
| 20260504213804 | 58 | 51 | 0.0 | 0.0 | 0.00 | 0.00 | 0.00 | 88 | 1012.3 |
| 20260504213301 | 58 | 51 | 0.0 | 0.0 | 0.00 | 0.00 | 0.00 | 88 | 1012.4 |
| 20260504212801 | 58 | 51 | 0.0 | 0.0 | 0.00 | 0.00 | 0.00 | 87 | 1012.4 |
| 20260504212304 | 58 | 51 | 0.0 | 0.0 | 0.00 | 0.00 | 0.00 | 87 | 1012.5 |
| 20260504211801 | 58 | 51 | 0.0 | 0.0 | 0.00 | 0.00 | 0.00 | 87 | 1012.5 |
| 20260504211259 | 58 | 51 | 0.0 | 0.0 | 0.00 | 0.00 | 0.00 | 87 | 1012.5 |
| 20260504211252 | 58 | 51 | 0.0 | 0.0 | 0.00 | 0.00 | 0.00 | 87 | 1012.6 |
| 20260504210322 | 58 | 51 | 0.0 | 0.0 | 0.00 | 0.00 | 0.00 | 87 | 1012.6 |
| 20260504205258 | 58 | 51 | 0.0 | 0.0 | 0.00 | 0.00 | 0.00 | 86 | 1012.5 |
| 20260504204757 | 58 | 51 | 0.0 | 0.0 | 0.00 | 0.00 | 0.00 | 86 | 1012.6 |
| 20260504204301 | 58 | 51 | 0.0 | 0.0 | 0.00 | 0.00 | 0.00 | 86 | 1012.6 |
| 20260504203759 | 58 | 51 | 0.0 | 0.0 | 0.00 | 0.00 | 0.00 | 86 | 1012.6 |
| 20260504203255 | 59 | 51 | 0.0 | 0.0 | 0.00 | 0.00 | 0.00 | 86 | 1012.6 |
| 20260504202753 | 59 | 51 | 0.0 | 0.0 | 0.00 | 0.00 | 0.00 | 86 | 1012.7 |
| 20260504202255 | 59 | 51 | 0.0 | 0.0 | 0.00 | 0.00 | 0.00 | 85 | 1012.6 |
| 20260504202229 | 59 | 51 | 0.0 | 0.0 | 0.00 | 0.00 | 0.00 | 85 | 1012.5 |
| 20260504201258 | 59 | 51 | 0.0 | 0.0 | 0.00 | 0.00 | 0.00 | 85 | 1012.5 |
| 20260504200753 | 60 | 51 | 0.0 | 0.0 | 0.00 | 0.00 | 0.00 | 84 | 1012.5 |
| 20260504200252 | 60 | 51 | 0.0 | 0.0 | 0.00 | 0.00 | 0.00 | 84 | 1012.6 |
| 20260504195745 | 60 | 51 | 0.0 | 0.0 | 0.00 | 0.00 | 0.00 | 83 | 1012.5 |
| 20260504195251 | 60 | 51 | 0.0 | 0.0 | 0.00 | 0.00 | 0.00 | 83 | 1012.4 |
| 20260504194745 | 60 | 51 | 0.0 | 0.0 | 0.00 | 0.00 | 0.00 | 83 | 1012.3 |
| 20260504194245 | 61 | 51 | 0.0 | 0.0 | 0.00 | 0.00 | 0.00 | 82 | 1012.3 |
| 20260504193743 | 61 | 51 | 0.0 | 0.0 | 0.00 | 0.00 | 0.00 | 82 | 1012.3 |
| 20260504193242 | 61 | 51 | 0.0 | 0.0 | 0.00 | 0.00 | 0.00 | 81 | 1012.4 |
| 20260504192744 | 62 | 51 | 0.0 | 0.0 | 0.00 | 0.00 | 0.00 | 81 | 1012.3 |
| 20260504192243 | 62 | 51 | 0.0 | 0.0 | 0.00 | 0.00 | 0.00 | 80 | 1012.2 |
| 20260504191745 | 62 | 51 | 0.0 | 0.0 | 0.00 | 0.00 | 0.00 | 80 | 1012.3 |
| 20260504191244 | 62 | 51 | 0.0 | 0.0 | 0.00 | 0.00 | 0.00 | 80 | 1012.3 |
| 20260504191237 | 62 | 51 | 0.0 | 0.0 | 0.00 | 0.00 | 0.00 | 79 | 1012.4 |
| 20260504190244 | 63 | 51 | 0.0 | 0.0 | 0.00 | 0.00 | 0.00 | 78 | 1012.3 |
| 20260504185737 | 63 | 51 | 0.0 | 0.0 | 0.00 | 0.00 | 0.00 | 77 | 1012.3 |
| 20260504185659 | 63 | 51 | 0.0 | 0.0 | 0.00 | 0.00 | 0.00 | 77 | 1012.3 |
| 20260504184941 | 63 | 51 | 0.0 | 0.0 | 0.00 | 0.00 | 0.00 | 77 | 1012.2 |
| 20260504183732 | 64 | 51 | 0.0 | 0.0 | 0.00 | 0.00 | 0.00 | 75 | 1012.1 |
| 20260504183656 | 64 | 51 | 0.0 | 0.0 | 0.00 | 0.00 | 0.00 | 75 | 1012.1 |
| 20260504182739 | 64 | 51 | 0.0 | 0.0 | 0.00 | 0.00 | 0.00 | 74 | 1012.1 |
| 20260504182230 | 65 | 51 | 0.0 | 0.0 | 0.00 | 0.00 | 0.00 | 73 | 1012.0 |
| 20260504181729 | 65 | 51 | 0.0 | 0.0 | 0.00 | 0.00 | 0.00 | 73 | 1012.0 |
| 20260504181232 | 66 | 51 | 0.0 | 0.0 | 0.00 | 0.00 | 0.00 | 72 | 1012.1 |
| 20260504180739 | 66 | 51 | 0.0 | 0.0 | 0.00 | 0.00 | 0.00 | 71 | 1012.1 |
| 20260504180231 | 66 | 51 | 0.0 | 0.0 | 0.00 | 0.00 | 0.00 | 69 | 1012.0 |
| 20260504175232 | 68 | 51 | 0.0 | 0.0 | 0.00 | 0.00 | 0.00 | 67 | 1012.0 |
| 20260504174731 | 69 | 51 | 0.0 | 0.0 | 0.00 | 0.00 | 0.00 | 64 | 1012.1 |
| 20260504174231 | 69 | 51 | 0.0 | 0.0 | 0.00 | 0.00 | 0.00 | 60 | 1011.9 |
| 20260504173728 | 70 | 51 | 0.0 | 0.0 | 0.00 | 0.00 | 0.00 | 57 | 1011.9 |
| 20260504173254 | 70 | 51 | 0.0 | 0.0 | 0.00 | 0.00 | 0.00 | 55 | 1012.0 |
| 20260504173246 | 71 | 51 | 0.0 | 0.0 | 0.00 | 0.00 | 0.00 | 57 | 1012.0 |
| 20260504173229 | 70 | 51 | 0.0 | 0.0 | 0.00 | 0.00 | 0.00 | 55 | 1011.9 |
| 20260504171722 | 71 | 51 | 0.0 | 0.0 | 0.00 | 0.00 | 0.00 | 55 | 1011.9 |
| 20260504171225 | 71 | 51 | 0.0 | 0.0 | 0.00 | 0.00 | 0.00 | 55 | 1011.9 |
| 20260504170734 | 71 | 51 | 0.0 | 0.0 | 0.00 | 0.00 | 0.00 | 54 | 1011.9 |
| 20260504170225 | 71 | 51 | 0.0 | 0.0 | 0.00 | 0.00 | 0.00 | 54 | 1011.9 |
| 20260504160215 | 73 | 337 | 0.0 | 0.0 | 0.00 | 0.00 | 0.00 | 52 | 1012.1 |
| 20260504150710 | 74 | 324 | 0.0 | 0.0 | 0.00 | 0.00 | 0.00 | 51 | 1012.1 |
| 20260504150211 | 75 | 75 | 0.0 | 0.0 | 0.00 | 0.00 | 0.00 | 52 | 1012.1 |
| 20260504140705 | 75 | 102 | 0.0 | 0.0 | 0.00 | 0.00 | 0.00 | 51 | 1012.3 |
| 20260504140203 | 75 | 355 | 0.0 | 0.0 | 0.00 | 0.00 | 0.00 | 52 | 1012.3 |
| 20260504130708 | 76 | 69 | 0.0 | 0.0 | 0.00 | 0.00 | 0.00 | 45 | 1012.4 |
| 20260504130204 | 76 | 69 | 0.0 | 0.0 | 0.00 | 0.00 | 0.00 | 44 | 1012.4 |
| 20260504120235 | 76 | 93 | 0.0 | 0.0 | 0.00 | 0.00 | 0.00 | 47 | 1012.6 |
| 20260504120209 | 76 | 93 | 0.0 | 0.0 | 0.00 | 0.00 | 0.00 | 47 | 1012.6 |
| 20260504110707 | 75 | 106 | 0.0 | 0.0 | 0.00 | 0.00 | 0.00 | 46 | 1013.2 |
| 20260504110205 | 75 | 106 | 0.0 | 0.0 | 0.00 | 0.00 | 0.00 | 46 | 1013.3 |
| 20260504100213 | 74 | 103 | 0.0 | 0.0 | 0.00 | 0.00 | 0.00 | 49 | 1014.0 |
| 20260504100203 | 74 | 103 | 0.0 | 0.0 | 0.00 | 0.00 | 0.00 | 48 | 1014.1 |